Location: Sevilla
(37.3933°N, 5.9839°W)
Time: 04:53:42
(UTC+02:00)

Transit 2A Rocket - Pass Details

Date: 26 June 2024
Orbit: 582 x 910 km, 66.7° (Epoch: 15 July)

Event Time Altitude Azimuth Distance (km) Brightness Sun altitude
Rises 21:45:42 0° 222° (SW) 3,055 8.3 -0.3°
Reaches altitude 10° 21:48:00 10° 228° (SW) 2,192 7.6 -0.7°
Maximum altitude 21:52:51 48° 303° (WNW) 995 6.3 -1.5°
Drops below altitude 10° 21:58:13 10° 18° (NNE) 2,419 7.8 -2.4°
Sets 22:00:52 0° 24° (NNE) 3,404 8.5 -2.9°
